RH
15 15 15 15 15 16 18 19 20 21 21 21 22 23 23 24 24 25 26 27 26 24 23 22 21 19 17 15 14 14 14 13 12 12 11 10 8 8 8 8 8 8 8 8 9 9 9 9 9 9 9 10 10 10 11 11 11 12 14 16 17 17 19 20 21 20 19 21 24 25 26 30 32 34 36 35 36 39 40 36 30 29 29 31 33 36 38 41
15 15 15 15 15 15 15 16 18 20 21 22 22 23 24 24 24 24 25 25 26 25 24 23 22 20 18 17 16 15 15 15 14 13 13 12 11 10 9 9 8 8 8 8 9 10 10 10 10 10 10 10 11 11 11 11 12 13 14 17 18 17 17 20 23 23 22 23 25 26 27 30 34 37 39 36 34 32 30 28 27 28 29 32 36 38 38 38
16 16 16 15 15 15 15 15 15 17 18 20 22 23 24 25 25 25 24 24 24 25 25 24 23 21 20 19 17 16 16 15 15 14 15 14 14 13 12 11 9 9 9 9 10 10 11 11 11 12 12 11 11 11 11 11 13 14 17 21 19 16 18 22 26 25 23 21 22 25 27 32 37 39 36 31 29 26 24 25 27 30 33 34 34 33 35 40
16 16 16 16 16 16 15 15 15 15 16 17 19 21 24 25 26 25 25 24 24 24 25 25 24 23 21 20 19 18 17 16 16 15 15 15 15 16 15 14 12 11 10 11 11 11 12 12 13 13 14 14 13 13 13 13 13 14 18 20 18 15 18 21 22 22 20 20 22 25 31 38 40 36 29 25 25 25 24 26 32 37 37 35 34 35 40 47
15 15 15 16 16 16 16 16 16 16 16 16 16 18 20 23 25 26 26 26 25 25 25 25 25 24 22 21 20 19 18 17 17 16 16 16 16 17 18 18 17 15 14 15 14 13 13 14 16 17 18 17 16 16 16 15 15 16 19 19 17 17 19 19 19 21 22 24 28 32 38 39 36 31 24 21 24 27 31 35 39 40 38 39 41 43 42 41
15 15 15 15 16 16 16 16 16 16 16 16 16 16 17 19 21 23 24 25 26 25 25 25 24 23 23 22 20 19 19 18 17 17 17 17 17 18 19 20 21 20 20 21 21 19 18 19 20 21 21 19 19 20 18 17 17 19 22 22 22 23 23 24 25 27 29 33 36 39 40 36 33 30 26 25 29 37 45 44 41 41 45 47 44 40 35 32
16 16 15 15 15 16 16 16 16 17 17 17 17 17 17 17 18 19 21 22 23 24 24 24 23 23 22 22 21 20 19 19 18 18 18 18 19 19 19 21 22 23 22 23 24 25 27 30 31 28 25 23 22 20 18 18 21 28 32 33 32 33 34 32 33 35 37 41 44 46 45 41 37 33 31 33 37 44 48 45 42 46 51 47 38 32 30 30
16 16 16 16 16 16 16 16 16 17 17 17 17 17 17 17 17 18 18 19 20 21 22 22 22 21 21 21 21 20 19 19 19 19 19 19 20 20 20 22 23 24 24 24 24 26 30 35 35 31 27 24 24 24 26 29 36 45 49 48 45 46 47 42 42 45 46 48 51 52 50 46 40 35 35 40 44 46 44 41 43 45 43 37 31 29 28 27
16 16 16 16 16 16 16 16 17 17 17 17 17 17 17 17 17 18 18 18 19 19 20 20 20 20 20 21 20 20 20 20 20 20 21 21 21 21 21 23 24 26 26 26 27 27 27 27 25 24 24 25 29 33 34 38 46 53 55 53 52 53 52 47 46 50 51 51 53 53 50 44 38 37 40 44 49 47 41 40 42 40 34 30 27 26 25 22
17 16 16 16 16 16 16 17 17 17 17 17 18 18 18 18 18 18 18 18 19 19 19 19 20 20 20 21 21 21 20 21 21 22 22 22 22 22 23 24 26 27 29 29 29 28 26 24 23 23 24 25 28 28 28 34 42 49 51 49 49 50 49 47 48 51 49 49 51 49 44 40 37 38 43 47 47 43 39 39 38 34 28 25 23 22 20 18
17 16 16 16 16 16 16 17 17 17 18 17 18 18 19 19 19 19 19 18 19 19 19 19 20 20 21 21 21 21 21 22 23 23 23 24 24 24 24 25 27 29 31 31 30 29 28 28 28 27 27 26 25 23 23 26 29 33 35 34 37 39 41 43 44 41 37 39 43 40 37 38 37 36 38 37 35 34 32 31 28 24 22 21 20 19 18 18
17 17 16 16 16 16 16 16 17 17 17 17 18 18 19 19 20 20 20 20 19 19 19 19 20 20 20 21 22 22 22 23 24 24 24 25 25 26 26 27 28 30 31 32 31 31 30 30 31 31 30 29 27 26 26 25 25 26 26 26 28 30 33 33 29 24 23 29 34 31 30 31 28 26 26 24 24 27 28 26 23 22 22 21 20 19 19 19
17 17 17 16 16 16 17 16 17 17 17 17 17 18 19 19 20 21 21 21 21 21 21 20 20 20 21 21 22 22 22 24 24 24 24 25 25 26 28 28 29 30 30 31 31 30 30 31 32 33 33 32 32 31 29 29 28 27 28 29 30 30 30 28 24 23 26 30 32 28 28 28 24 22 22 23 24 26 27 26 24 24 22 21 20 21 22 21
18 18 17 17 17 17 17 17 17 17 17 17 17 17 18 18 19 20 21 22 22 22 22 22 22 22 22 22 22 22 22 23 24 23 24 24 24 26 27 28 29 30 30 30 31 30 31 32 34 36 35 35 35 33 32 32 32 32 33 34 35 34 33 31 30 31 32 33 31 29 30 30 26 24 24 24 25 26 25 25 25 25 23 22 23 24 24 24
18 18 17 17 17 17 17 17 17 17 17 17 17 17 17 17 18 19 20 21 22 23 23 24 24 24 24 24 24 23 23 23 24 23 23 23 24 24 25 26 28 29 29 30 30 30 31 33 34 35 36 35 34 34 34 35 36 36 36 36 36 35 34 34 34 33 32 32 31 30 31 30 26 25 24 22 24 26 26 26 27 27 26 27 29 29 30 31
19 19 18 17 17 17 17 18 17 17 18 18 17 17 16 17 17 18 19 19 21 22 23 24 25 25 26 27 26 25 25 25 25 25 24 24 24 24 24 24 25 26 26 27 28 28 29 29 31 31 32 32 32 33 33 34 35 35 34 34 33 33 33 34 33 32 32 31 30 29 28 26 24 23 22 23 27 30 30 31 33 34 34 35 37 36 36 36
20 19 19 18 17 17 17 17 17 17 17 17 17 17 16 16 17 17 18 19 19 20 21 22 23 26 27 28 28 27 27 26 26 26 26 26 25 25 25 25 25 25 25 25 25 25 25 26 26 27 27 27 28 28 29 30 30 30 29 29 29 30 31 31 30 29 28 28 27 25 25 24 23 23 25 30 34 37 39 41 43 43 41 43 44 42 40 38
21 20 19 19 18 17 17 17 17 16 17 17 17 17 17 16 16 17 18 18 19 19 20 21 23 26 27 28 28 28 28 27 27 27 27 27 27 27 27 27 27 26 26 25 25 24 25 25 24 25 25 25 25 25 25 24 24 24 24 25 26 26 27 27 27 26 25 25 25 24 25 27 27 29 34 41 45 48 50 50 50 49 47 47 45 43 42 39
21 21 20 19 19 18 17 17 17 16 16 17 17 17 17 17 17 17 18 19 19 19 20 21 24 26 26 27 28 28 27 27 28 28 29 30 31 32 32 31 31 30 29 28 28 27 27 27 27 27 25 24 24 24 23 23 24 25 25 26 25 25 25 26 25 25 25 27 28 28 30 34 38 41 45 51 54 56 56 55 54 52 49 46 45 50 52 48
22 21 20 20 20 19 19 18 17 17 17 16 17 17 17 17 18 18 19 19 19 20 20 22 23 25 27 28 28 29 29 30 31 31 33 36 37 39 40 40 40 40 38 37 36 35 33 33 31 29 28 28 28 26 26 27 29 29 29 27 26 25 27 30 32 33 36 39 39 38 39 43 51 55 55 57 58 58 58 57 55 52 48 47 55 63 63 59
22 21 21 20 20 20 20 20 19 18 17 17 17 17 17 18 19 19 20 20 20 20 20 21 23 25 27 28 29 30 33 35 35 35 38 41 45 49 52 55 56 55 54 53 50 45 42 40 38 37 36 36 35 34 35 37 38 36 34 31 31 33 37 43 48 49 51 52 49 49 51 55 59 63 63 63 61 60 59 56 52 49 48 54 64 69 67 67
25 22 21 20 20 21 21 21 21 20 19 19 19 19 19 19 20 20 21 22 22 22 21 21 22 24 26 27 30 33 36 38 38 40 41 46 54 61 66 71 73 73 72 70 66 61 57 52 50 49 48 48 48 49 52 53 52 48 45 45 47 50 54 59 61 60 61 61 59 60 61 63 65 66 66 64 62 60 56 52 48 48 53 59 64 70 73 74
28 25 22 21 20 21 23 23 23 23 22 22 22 22 21 20 20 21 22 23 23 23 23 22 22 24 26 28 31 34 38 39 39 41 44 51 63 73 81 86 87 89 89 87 83 78 75 71 70 71 73 74 73 74 76 76 73 69 67 68 70 69 68 69 69 67 68 68 68 67 67 68 68 67 65 62 59 55 51 47 46 52 60 63 67 77 81 79
31 28 24 22 21 21 23 24 25 24 25 28 28 25 24 23 23 23 24 25 25 26 25 23 23 24 25 27 30 34 38 39 39 40 43 52 67 79 90 96 98 101 102 99 94 90 89 89 91 94 95 95 94 95 97 97 94 89 85 82 80 77 75 74 73 72 72 71 71 70 69 69 67 65 61 57 54 50 46 45 52 62 65 66 74 83 85 83
34 31 28 24 22 21 22 24 26 26 28 36 36 31 29 28 27 27 26 27 27 28 27 25 25 24 24 27 30 32 35 38 37 37 41 49 62 77 92 103 105 105 104 100 97 95 97 100 102 103 103 102 102 101 102 101 96 91 88 85 81 79 77 76 75 75 73 72 72 70 67 66 64 62 58 53 50 46 46 50 60 70 71 72 77 81 85 85
38 35 32 29 25 23 22 23 26 27 31 39 40 36 38 38 34 31 29 30 29 30 30 27 26 25 25 29 30 30 32 36 36 36 38 46 57 71 88 103 105 101 98 95 95 97 99 102 103 103 101 100 99 97 97 96 91 88 88 87 87 85 82 79 77 75 72 70 69 66 64 63 60 60 57 50 47 51 58 63 67 75 80 80 79 79 83 82
42 38 35 33 29 25 24 22 24 27 30 36 35 39 51 52 45 38 33 33 32 32 32 29 27 27 27 29 30 31 32 32 34 36 37 42 51 62 77 93 99 95 92 90 91 94 96 97 99 100 98 97 96 94 93 92 90 90 90 90 89 86 83 79 74 71 69 67 65 62 62 61 58 59 56 51 53 65 75 75 72 78 84 84 83 82 82 79
46 43 38 36 34 31 27 24 24 26 28 31 32 42 61 65 60 54 48 42 35 33 35 32 29 28 28 31 34 35 33 31 32 34 36 38 45 53 65 80 88 86 84 85 86 88 91 93 94 95 95 95 94 93 93 92 92 91 89 87 84 80 77 75 72 70 69 66 62 60 64 67 66 66 64 61 64 71 76 76 75 79 83 86 88 86 82 78
48 48 44 39 37 35 32 28 25 24 26 28 30 44 62 69 72 75 72 67 53 41 38 36 34 31 29 33 38 38 35 32 32 32 34 38 42 47 54 63 72 76 77 78 80 83 85 86 87 89 90 92 92 92 91 89 88 85 82 80 79 77 76 75 72 69 66 64 62 62 71 79 82 83 80 71 63 63 67 73 77 80 83 86 88 84 79 74
51 52 49 44 40 38 37 33 29 26 25 25 28 38 51 63 77 89 94 96 85 67 53 43 38 33 31 35 39 39 37 35 32 30 30 33 37 41 45 49 56 63 68 71 75 78 78 78 81 83 86 89 88 84 82 82 82 80 78 79 78 75 75 73 68 64 63 65 65 66 73 85 93 98 97 79 60 57 64 71 77 80 81 81 80 77 72 68
52 53 53 49 45 41 39 37 34 32 28 26 27 30 37 51 74 96 106 108 104 94 79 60 48 41 34 34 38 37 37 38 38 35 32 31 33 38 41 44 47 50 56 63 67 68 69 69 71 74 77 79 79 77 75 78 78 75 75 78 76 70 69 70 68 70 72 71 74 75 77 88 99 107 109 90 63 56 61 65 71 77 78 77 75 71 68 65
54 55 53 52 51 45 42 42 40 37 32 30 28 27 28 36 63 98 110 106 105 103 95 78 68 63 49 39 41 42 41 44 46 45 41 36 35 41 44 44 44 45 48 54 59 58 59 60 60 64 68 73 79 80 78 75 71 69 72 77 77 73 73 76 78 84 85 82 84 87 86 91 98 105 112 98 68 55 58 61 63 70 77 77 73 69 67 65
57 56 53 53 52 47 45 45 43 40 39 35 31 29 27 27 53 94 108 103 100 100 98 90 83 83 75 62 59 54 48 49 51 51 49 45 44 48 51 48 47 49 49 53 59 55 51 53 56 59 65 76 86 83 74 69 68 73 81 87 87 86 87 86 85 88 89 85 85 87 90 94 95 98 108 107 81 59 61 66 65 68 74 75 71 67 65 65
59 59 55 52 50 47 47 49 46 43 43 41 36 32 31 29 43 69 84 89 90 86 90 93 92 96 96 92 87 74 63 59 57 56 54 57 63 65 63 57 54 57 55 54 58 55 52 52 55 64 75 89 99 92 78 78 86 91 93 94 96 97 99 96 91 88 84 82 82 86 93 98 99 98 104 113 99 70 62 69 71 70 69 68 65 63 63 63
62 62 57 52 47 44 47 50 48 45 44 45 42 39 39 39 39 42 46 57 69 79 91 95 95 104 108 107 103 96 91 83 74 70 68 72 80 79 74 66 59 59 59 58 59 59 60 56 52 67 87 97 102 101 95 95 101 102 96 94 98 104 107 104 97 92 87 83 81 84 90 93 96 95 93 103 103 84 71 72 75 74 70 66 63 60 58 56
65 64 60 53 45 43 49 53 51 48 46 45 45 47 49 47 40 35 31 33 43 65 89 95 90 93 102 108 106 100 102 98 88 88 91 95 93 81 76 74 69 73 77 77 72 69 74 73 65 74 90 99 105 108 106 103 103 102 98 98 103 106 106 102 99 97 94 91 84 83 87 87 85 85 84 93 104 103 95 85 79 76 70 65 62 56 53 52
66 64 60 54 48 48 56 58 52 49 46 45 47 52 54 51 45 41 35 31 30 38 59 81 89 87 88 100 105 100 99 95 87 88 95 104 104 93 90 90 86 92 100 96 85 81 90 96 91 88 91 98 109 112 108 104 104 103 103 103 104 103 99 95 97 100 100 102 100 94 91 85 79 80 81 84 91 99 99 88 78 74 66 60 57 55 55 55
64 61 59 58 54 54 58 56 51 50 48 47 52 55 54 53 51 46 39 33 30 27 32 50 70 79 82 91 99 99 102 96 84 80 82 90 100 103 105 100 90 94 103 99 90 89 98 106 106 102 97 99 109 113 109 106 106 107 107 106 104 102 100 95 98 103 104 108 109 101 91 83 77 75 73 73 75 80 82 77 73 69 62 58 57 58 61 63
59 57 59 61 58 56 56 53 50 51 52 54 58 58 55 53 49 45 42 36 32 30 28 30 40 54 68 81 88 91 101 104 96 90 82 81 92 101 102 96 91 97 103 101 99 100 104 109 109 107 105 104 107 111 111 107 105 107 107 105 104 105 104 100 100 102 103 106 106 99 92 86 82 78 73 70 69 70 72 71 69 68 64 63 63 65 68 70
54 53 57 59 57 55 55 54 50 51 55 59 62 60 58 55 48 42 42 42 38 35 33 30 30 34 43 56 69 77 89 100 105 106 97 87 90 97 99 99 101 104 105 104 107 108 105 104 105 104 104 105 104 104 109 107 103 105 107 106 106 106 102 96 96 99 101 104 104 102 100 97 96 93 86 80 74 73 73 72 71 70 70 70 71 74 77 78
47 47 50 52 52 52 51 52 51 51 55 59 63 63 62 61 56 48 42 41 43 42 39 35 32 32 33 37 47 58 72 88 100 107 103 95 94 97 97 99 103 107 106 106 109 109 105 103 104 104 103 104 102 100 104 104 98 100 107 107 103 101 97 94 97 101 105 108 109 108 107 106 105 102 99 97 94 93 90 87 83 81 80 81 80 81 84 87
42 43 45 46 46 47 46 47 48 50 55 60 63 64 65 67 65 56 45 41 41 42 42 40 37 36 36 36 38 42 56 76 92 100 99 92 87 89 92 93 97 104 104 103 104 108 109 105 104 105 104 103 102 100 103 105 96 91 95 96 93 93 95 99 104 105 106 109 109 107 106 106 107 108 106 104 103 104 104 102 99 96 95 94 92 93 95 96
40 41 43 43 43 44 45 44 45 50 56 58 58 58 60 66 68 60 49 43 42 41 41 44 45 43 40 40 41 40 43 55 70 85 95 90 77 75 86 93 97 101 102 103 104 106 109 109 105 106 106 102 98 96 100 103 99 93 91 91 92 91 91 96 104 107 106 106 106 105 105 105 106 108 106 101 96 95 98 101 102 103 104 104 103 104 104 101
38 40 42 43 43 44 44 45 47 51 53 52 52 53 54 60 66 64 55 49 47 43 41 44 50 53 50 46 45 45 44 45 49 58 70 77 71 65 73 85 94 98 98 101 102 101 105 110 107 105 107 104 98 96 99 103 107 106 102 100 100 97 93 94 101 107 108 107 107 108 109 108 109 110 108 104 100 99 100 101 103 105 107 107 106 108 108 104
31 34 38 40 42 43 44 47 49 51 52 51 51 50 53 60 65 62 56 54 52 47 44 45 49 57 60 56 50 48 48 47 47 47 49 55 57 54 54 60 72 81 85 92 98 101 107 112 108 106 107 106 101 100 102 105 107 107 105 105 107 106 105 103 103 105 106 105 106 109 110 109 110 111 110 109 109 109 109 108 107 106 106 107 107 107 108 108
24 27 31 34 37 39 41 44 47 49 49 51 51 50 53 59 61 58 57 59 58 53 47 45 47 53 63 66 59 53 53 51 49 48 48 48 49 50 48 45 48 53 57 64 71 79 89 98 104 107 110 111 108 104 105 108 106 102 99 100 105 108 108 105 103 102 101 98 97 98 102 107 109 109 109 110 111 110 109 108 107 106 105 108 110 109 108 107
20 22 25 29 32 34 35 37 40 44 46 47 48 49 52 56 57 58 59 60 60 57 51 47 46 49 59 71 72 65 60 58 54 51 50 50 49 51 52 49 48 48 47 46 45 47 52 58 67 76 86 96 97 92 96 104 108 107 102 96 97 103 107 105 104 103 101 100 95 89 90 97 99 99 103 107 109 109 106 105 106 108 109 110 110 109 107 106
18 19 21 25 28 29 31 33 35 39 41 42 44 46 51 55 56 58 59 59 59 58 54 49 47 48 55 68 78 76 70 65 60 56 55 56 55 54 53 53 54 56 56 54 50 48 46 46 50 56 62 72 74 67 64 71 81 91 94 84 77 81 91 98 101 103 103 104 100 92 90 92 90 90 95 101 106 109 109 107 105 105 106 107 107 107 105 103
15 17 19 21 24 26 28 31 32 34 35 37 38 42 47 51 52 55 57 59 59 58 56 52 49 48 52 60 70 76 77 75 70 63 59 61 63 63 61 58 55 54 56 57 56 55 54 53 56 61 63 65 67 61 54 54 58 64 69 65 57 53 58 66 73 79 83 87 87 85 85 85 82 81 82 86 93 101 106 107 103 98 94 93 95 97 99 98
15 16 17 19 22 24 27 30 31 30 31 32 34 36 41 45 47 50 53 56 57 56 56 54 51 49 50 55 63 69 72 78 80 75 68 63 63 65 67 67 65 61 57 56 53 53 54 50 48 54 59 63 66 65 63 64 63 57 54 53 49 44 42 43 47 51 56 61 64 65 69 72 72 74 78 79 80 85 91 97 101 102 100 97 94 92 90 89
16 16 17 18 20 23 26 29 30 29 28 30 32 34 37 41 44 46 48 52 54 53 53 53 53 52 49 51 60 68 74 81 86 85 82 77 68 63 64 67 72 71 67 62 55 50 50 47 44 44 47 51 55 56 55 58 60 56 51 47 44 43 43 43 43 45 48 52 55 56 59 63 67 73 80 84 83 82 83 87 92 97 99 101 100 96 91 88
18 17 17 18 19 22 25 29 31 32 30 28 29 34 38 41 43 44 45 46 49 50 52 52 52 52 51 51 56 65 79 91 95 94 95 97 91 81 73 71 73 73 72 71 69 65 60 55 51 47 43 42 46 51 52 54 54 52 50 48 46 44 44 46 47 48 51 55 59 62 62 62 64 68 73 79 84 87 89 92 95 97 98 98 97 96 96 96
Wind_Speed
71 72 72 72 72 72 73 74 74 75 76 77 77 78 79 79 80 80 80 79 79 78 78 77 77 77 76 75 74 74 74 75 75 75 75 76 76 77 78 80 80 82 84 85 86 88 89 89 88 89 89 90 91 91 91 91 90 90 90 91 93 93 93 93 93 92 91 91 91 91 91 91 91 91 90 89 88 88 88 89 91 91 91 90 90 90 90 90
70 71 71 72 72 72 73 73 73 74 74 75 76 76 77 78 79 79 79 79 79 78 78 77 77 77 76 75 75 74 74 74 74 74 74 74 74 75 76 78 78 79 80 81 83 85 86 86 86 87 88 88 88 88 88 88 87 88 88 90 92 93 91 91 91 91 90 90 90 90 90 90 91 91 90 90 90 89 89 90 90 91 91 91 90 90 90 91
67 68 70 71 71 72 73 73 73 73 74 74 74 75 76 77 77 78 79 79 79 78 78 78 77 76 76 75 75 75 74 74 73 73 73 73 73 74 74 75 76 77 78 78 80 81 82 82 83 84 86 86 86 86 86 86 85 85 85 88 91 90 88 88 89 89 89 88 89 90 90 90 91 91 91 90 90 90 89 89 90 90 91 91 91 90 90 91
64 66 67 68 69 70 71 72 73 73 73 73 74 74 75 76 76 77 78 78 78 78 78 78 77 76 76 75 75 75 74 73 73 73 73 73 73 73 73 74 74 75 75 76 77 78 78 78 80 81 82 83 83 83 83 84 83 83 84 87 89 88 87 87 87 87 88 87 88 89 89 90 91 92 92 90 89 89 89 89 89 90 90 90 90 90 89 90
61 63 65 66 67 68 69 70 71 72 73 73 74 74 74 75 76 76 77 77 77 78 78 77 77 76 76 75 75 75 74 73 73 73 72 72 72 72 72 72 73 73 73 74 75 75 75 75 76 77 79 80 79 79 81 81 80 80 82 85 86 86 86 86 86 86 86 86 86 87 88 90 91 92 91 89 87 87 87 87 88 89 89 89 89 89 89 90
59 61 62 64 65 66 67 68 69 70 71 72 73 73 74 74 75 76 76 76 77 77 77 77 77 76 75 75 75 74 73 73 72 72 72 72 72 72 72 72 72 72 72 72 73 72 72 73 73 74 76 76 76 77 78 77 76 77 80 82 83 83 84 84 83 83 83 83 85 86 88 90 90 90 89 86 85 85 85 86 87 88 88 89 89 89 89 89
56 58 60 61 62 64 65 66 67 68 69 70 71 72 73 74 75 75 75 76 76 76 76 76 76 75 75 74 74 74 73 72 71 71 71 72 72 72 72 72 72 72 72 72 71 71 70 71 71 72 73 73 73 74 74 72 72 73 76 78 78 79 81 81 80 80 81 82 84 85 87 88 88 87 85 84 84 83 84 85 86 87 88 88 88 88 88 87
53 54 56 58 60 61 62 64 65 66 67 68 68 69 70 72 73 74 74 75 75 75 75 75 75 75 74 74 73 73 72 71 71 70 71 71 71 72 72 72 72 72 72 72 71 70 70 71 71 71 71 71 70 71 69 67 67 69 72 74 74 75 78 78 77 78 79 80 82 84 85 86 85 83 81 82 83 83 83 84 85 86 86 85 85 84 83 81
50 51 53 55 57 58 60 61 62 63 64 65 66 67 68 69 70 71 72 73 73 73 73 73 73 73 73 73 73 72 71 71 70 69 70 70 71 71 71 71 71 72 72 72 71 71 72 72 71 70 70 69 68 68 67 65 66 68 70 71 72 74 76 76 75 76 77 78 80 82 83 82 81 79 78 79 80 81 81 80 81 82 81 79 77 76 76 75
47 49 50 52 54 56 57 58 59 60 62 63 63 64 65 66 67 68 69 70 71 71 71 71 71 71 71 71 71 71 70 69 68 68 69 69 70 70 70 70 71 71 71 72 72 72 72 71 70 69 69 68 68 68 66 65 66 68 69 70 70 72 74 73 73 74 74 75 77 79 79 78 76 73 73 74 76 77 76 75 76 76 74 72 71 71 71 71
45 46 48 50 52 53 54 55 57 58 59 60 61 61 62 63 64 65 66 67 67 68 68 68 69 69 69 69 69 69 68 67 67 67 67 67 68 68 69 69 70 70 71 72 73 72 72 70 69 69 69 69 69 68 66 66 67 67 68 68 69 70 71 72 72 71 70 71 74 75 73 72 70 67 67 68 70 71 71 72 72 71 69 68 68 68 69 69
43 44 46 47 49 51 52 53 54 55 56 57 58 59 60 60 61 62 63 64 65 65 66 66 66 67 67 67 67 67 66 64 65 65 65 65 65 66 67 68 68 69 71 71 71 71 71 70 70 70 70 70 70 69 68 68 68 67 68 68 68 69 70 72 71 68 66 67 71 70 68 69 67 63 63 65 66 68 70 71 70 68 66 66 66 66 66 66
42 42 44 45 47 49 50 51 52 53 54 55 55 56 57 58 59 60 61 61 62 62 63 64 64 64 64 64 64 65 63 62 63 63 63 63 63 64 64 65 67 68 69 70 70 70 70 69 69 70 70 71 70 70 69 69 68 68 68 68 69 70 71 72 70 67 64 66 70 69 67 70 67 62 63 63 64 67 69 68 67 66 65 64 63 63 62 62
40 41 42 43 45 47 48 49 50 51 52 53 53 54 55 56 57 58 58 59 60 60 61 61 62 62 61 61 62 62 60 60 62 62 62 61 61 62 62 63 64 65 66 67 67 68 67 67 68 69 70 70 70 70 69 69 69 68 68 69 70 71 71 71 69 68 67 69 70 68 68 71 67 62 62 62 63 66 66 65 64 64 63 61 60 60 59 59
39 40 40 42 43 45 46 47 48 49 50 51 52 53 53 55 55 56 57 57 58 58 59 59 59 59 58 59 60 60 59 59 60 60 60 60 61 61 61 61 62 63 64 64 65 65 65 65 67 67 68 69 69 68 68 68 68 69 69 69 70 70 70 70 70 70 69 69 69 68 68 70 66 63 63 61 62 63 63 62 62 61 59 57 57 57 56 55
38 38 39 40 41 43 44 46 47 47 48 50 51 51 52 53 54 55 55 56 56 57 57 57 57 56 56 56 58 58 57 57 58 59 59 59 59 60 60 60 60 61 62 62 62 63 63 64 65 66 66 67 67 67 67 67 68 69 69 68 68 68 69 70 70 70 68 67 68 68 68 67 64 62 61 59 59 60 60 59 58 57 55 54 55 54 52 50
37 37 37 38 40 41 43 44 45 46 47 48 49 50 51 52 53 54 54 55 55 56 56 55 55 54 54 55 56 56 56 56 56 56 57 57 57 58 58 58 59 60 60 60 61 61 61 62 63 64 64 65 65 65 66 66 67 67 67 66 65 66 66 67 68 68 66 66 67 66 65 64 61 59 57 56 56 57 56 55 54 54 52 51 51 50 49 47
35 36 36 36 38 39 41 42 43 44 46 47 48 49 50 51 52 53 53 54 54 54 54 54 54 53 53 54 54 54 55 54 54 54 54 55 55 55 56 56 57 58 58 59 59 59 60 60 61 62 62 63 63 64 65 65 64 64 63 63 63 64 64 65 66 66 64 63 64 62 60 59 56 54 52 52 53 53 53 53 52 51 49 48 49 48 47 47
34 35 35 35 36 37 39 40 41 43 44 46 47 48 49 50 51 52 53 53 53 53 53 53 53 52 53 54 54 54 53 53 52 52 52 53 53 53 54 54 55 55 56 57 57 57 58 59 59 60 61 61 62 62 62 61 60 60 60 61 61 61 61 62 63 62 60 60 60 58 56 54 52 51 50 50 50 50 51 50 50 49 47 46 46 45 46 45
33 33 34 34 35 35 37 38 40 41 43 44 45 46 48 49 51 52 52 52 52 53 53 53 53 52 53 54 54 52 52 52 52 51 51 51 51 51 51 52 52 53 54 54 55 56 56 57 58 58 58 59 59 59 58 57 58 58 59 59 59 58 58 59 59 58 56 56 56 55 53 50 49 49 49 49 49 49 48 48 47 46 45 43 42 43 44 43
32 32 33 34 34 34 35 36 38 39 41 43 44 45 47 48 50 51 52 52 53 53 54 53 53 53 55 55 53 52 51 52 51 50 50 50 49 49 49 50 50 50 51 52 53 53 54 54 55 55 55 56 56 55 54 55 56 57 57 57 56 55 54 55 55 54 53 54 54 52 50 48 47 48 50 49 48 47 47 46 45 44 43 42 42 43 43 41
31 31 32 32 33 34 34 35 36 38 39 41 42 44 46 48 49 50 51 52 53 53 54 53 53 54 54 54 53 52 52 51 50 50 50 49 48 48 48 48 47 48 48 49 50 50 50 51 51 51 51 52 52 51 51 53 54 54 54 53 52 52 51 51 52 52 51 51 51 49 48 46 46 48 50 49 48 46 46 46 45 43 42 43 43 43 43 42
30 30 31 31 33 33 34 34 35 36 38 39 41 43 45 46 47 49 50 51 52 53 54 53 53 54 54 55 54 52 52 51 50 50 49 48 47 47 47 46 46 46 47 47 47 47 47 47 47 47 47 48 48 48 49 50 51 51 51 49 49 49 49 49 50 50 48 49 49 48 47 47 46 48 50 50 48 47 46 45 43 42 42 42 41 42 43 43
30 29 30 30 31 33 34 34 34 36 37 38 40 41 43 44 46 47 49 51 52 53 54 53 53 55 55 55 54 53 52 51 51 51 50 48 48 48 46 45 45 46 46 45 44 44 44 44 44 44 45 46 46 46 47 48 48 48 48 48 47 47 47 48 48 47 46 47 48 48 48 49 49 50 51 50 49 47 45 43 41 41 42 41 40 42 43 44
30 29 29 29 30 32 34 34 34 35 36 37 39 39 40 42 44 46 48 50 51 53 54 53 54 55 53 54 55 54 52 52 52 51 50 50 49 48 46 46 47 46 45 44 43 43 43 42 42 43 44 44 45 45 46 46 47 48 48 47 46 46 46 47 46 45 46 48 48 48 48 50 50 50 51 49 47 45 43 41 40 41 42 42 42 42 43 44
31 30 29 29 29 30 33 34 35 35 36 38 38 38 38 40 42 45 47 49 50 52 54 53 53 53 52 54 57 55 53 53 52 51 52 52 50 48 47 48 49 47 45 43 42 43 42 42 42 43 44 45 45 45 46 46 46 47 48 47 45 45 46 46 46 46 47 48 48 48 48 50 50 51 51 48 45 43 41 40 40 41 43 43 42 42 42 44
32 31 29 29 29 29 31 34 35 36 37 38 38 36 37 39 41 43 44 47 49 51 53 53 53 53 53 54 55 55 54 54 52 53 54 53 51 49 49 50 50 47 44 43 44 44 43 42 43 44 44 45 46 46 46 46 45 47 49 47 45 45 46 46 46 46 47 47 47 47 48 49 50 51 50 45 42 41 40 40 40 41 43 42 42 41 42 43
33 32 31 29 29 29 30 32 35 37 37 37 36 36 37 38 39 40 41 45 48 49 51 52 52 53 52 53 54 55 56 54 53 54 54 53 51 50 51 52 51 47 44 44 46 45 43 44 45 44 44 46 46 46 46 45 46 48 49 47 45 44 45 46 47 47 47 46 47 46 47 48 49 50 49 45 42 41 41 41 40 41 42 41 41 41 41 42
34 33 33 31 29 29 29 31 33 36 38 38 36 36 38 39 38 39 39 42 45 47 48 50 52 52 51 52 54 56 56 55 55 55 53 52 52 52 53 53 50 46 44 46 48 46 45 45 45 44 45 46 47 46 45 45 47 48 47 47 46 45 45 47 47 47 46 46 46 46 46 47 48 49 50 46 42 41 40 40 40 41 41 41 40 41 40 40
34 34 34 33 31 30 30 30 31 33 36 38 37 38 39 39 38 38 39 41 43 44 46 49 50 51 50 51 54 55 55 55 55 55 54 53 53 54 54 53 50 48 47 48 49 49 48 46 44 45 46 47 48 47 45 46 48 47 46 47 48 46 47 48 47 47 46 46 46 45 45 46 47 49 51 49 43 40 40 40 40 41 42 41 40 40 40 40
34 35 35 34 33 32 31 30 30 31 34 36 39 40 39 39 39 39 40 43 43 43 46 48 48 49 50 51 52 54 53 53 54 54 53 53 53 54 54 53 52 50 48 49 50 50 49 46 45 46 47 48 48 47 45 46 48 47 47 47 48 47 47 47 46 45 45 45 45 45 44 45 46 48 51 50 44 40 39 40 40 41 42 42 40 40 39 39
35 36 36 35 35 35 32 30 31 32 32 34 37 40 40 39 39 41 45 46 44 45 46 45 45 46 48 48 49 51 51 51 52 53 52 52 52 53 53 53 51 50 48 49 50 50 48 46 46 46 47 47 47 46 46 47 48 48 47 47 48 47 46 45 45 44 44 44 44 44 44 45 46 47 50 51 45 40 39 40 40 41 41 41 40 39 39 38
36 37 37 36 36 36 33 32 33 32 32 33 35 38 39 39 41 46 49 48 47 46 46 44 43 43 44 44 47 49 49 50 51 52 51 51 51 52 53 52 50 49 48 48 50 49 48 47 46 46 46 46 46 47 47 47 47 46 46 46 46 46 45 45 44 44 45 44 43 43 44 45 46 46 47 50 46 40 38 39 40 40 41 41 40 39 39 38
37 38 39 38 38 36 33 34 35 33 32 34 34 35 36 39 46 51 51 49 49 47 45 44 43 42 41 42 45 46 47 48 49 50 50 49 49 51 52 51 49 49 48 48 49 49 48 47 46 45 45 45 46 47 47 46 45 46 46 46 45 45 45 45 45 45 44 43 42 43 44 45 45 44 44 47 46 40 37 38 39 39 41 40 40 39 39 38
38 40 41 41 39 37 34 34 37 36 34 34 34 34 34 39 47 51 51 50 49 47 46 46 44 43 43 44 45 44 44 46 47 47 47 47 48 50 50 50 49 48 48 48 48 47 47 48 47 45 45 46 46 47 46 45 46 47 46 46 45 45 45 46 45 45 44 43 43 43 45 45 45 44 42 43 44 41 37 37 38 39 39 39 39 39 38 38
40 42 43 43 40 37 34 35 37 38 37 35 34 34 37 42 45 48 49 49 49 49 49 49 47 46 46 46 46 44 44 45 45 45 45 45 48 49 48 48 47 46 46 46 47 46 46 47 45 45 46 45 46 47 47 47 47 47 46 46 46 46 47 47 46 45 44 44 44 44 45 45 44 42 40 39 40 40 39 39 38 39 39 39 39 39 38 38
43 44 44 43 41 38 37 38 40 40 39 36 34 36 40 43 45 46 47 47 48 49 50 51 50 49 48 48 47 45 45 46 45 45 46 46 48 46 45 46 45 44 45 46 45 44 44 45 44 45 46 45 46 49 49 47 47 47 47 47 48 48 48 46 46 45 45 45 46 45 45 44 42 40 39 37 39 40 41 40 39 39 39 39 40 40 40 40
46 46 45 44 43 41 41 42 42 41 40 37 36 38 41 44 46 47 47 46 46 46 48 51 51 51 49 49 48 46 46 47 46 45 46 47 47 46 46 47 45 44 45 45 43 42 42 44 44 45 47 46 48 51 50 48 47 49 49 48 48 49 48 46 46 46 45 47 48 46 45 42 41 41 40 38 39 41 42 42 41 41 41 41 42 42 42 43
49 47 46 47 47 44 45 46 44 42 41 40 40 41 43 46 49 48 47 46 45 43 45 47 50 52 51 51 50 48 47 47 46 47 47 46 46 47 47 46 44 44 45 44 42 41 42 44 45 47 48 48 49 51 52 50 50 51 50 48 49 50 49 48 47 47 48 49 49 47 44 42 42 42 41 40 40 41 43 43 43 44 43 43 44 44 45 46
52 48 48 50 49 48 48 48 46 45 44 43 44 45 45 48 50 49 46 45 44 43 43 43 45 49 51 51 52 50 49 49 49 50 50 47 46 47 47 45 44 45 45 44 43 43 44 47 49 50 52 52 52 53 54 53 52 52 51 50 50 51 50 48 48 48 49 50 50 48 45 44 44 44 43 42 41 42 44 45 45 45 45 46 46 47 47 49
54 51 50 52 52 51 51 50 49 48 47 47 47 48 48 48 50 50 47 45 44 44 43 42 41 43 46 50 52 52 51 51 52 53 53 51 49 48 47 46 46 47 47 46 46 46 47 50 53 54 54 55 54 54 55 56 54 52 53 53 51 51 49 48 48 49 50 51 51 49 47 46 47 46 45 45 44 44 45 46 47 47 48 49 49 49 50 51
56 53 53 55 55 54 53 52 51 51 50 51 51 50 49 49 51 52 49 46 44 43 42 41 40 40 42 45 48 51 52 54 54 55 55 54 52 50 49 48 48 49 49 48 48 49 50 52 55 57 57 57 56 55 56 58 56 54 54 53 51 50 49 48 49 50 50 52 53 51 49 48 49 48 48 47 47 47 47 49 49 49 51 52 52 52 52 53
58 55 56 57 57 56 56 55 54 53 54 55 54 53 51 51 53 54 51 47 44 43 41 40 40 40 40 41 43 47 50 54 55 56 57 57 55 53 51 50 50 51 50 50 50 51 51 53 55 58 59 58 57 56 56 57 57 56 55 54 52 52 50 50 51 52 52 53 54 53 51 50 51 51 51 50 50 50 50 51 51 52 53 53 53 53 54 54
59 57 58 59 59 59 58 57 56 57 58 57 56 54 53 53 54 56 53 48 45 43 41 40 41 41 42 42 42 43 45 49 52 55 57 58 57 55 53 53 53 53 52 52 52 52 52 53 55 58 60 58 57 56 56 56 57 57 56 55 55 54 53 53 54 54 54 55 55 55 54 52 53 53 53 52 52 53 53 53 53 54 55 55 55 55 55 56
56 56 58 60 61 61 61 60 60 61 60 58 57 56 54 55 56 57 54 49 47 45 42 40 42 43 43 44 44 43 44 46 47 50 53 55 56 57 56 55 55 55 54 54 54 53 54 54 56 58 61 60 58 57 57 59 60 59 57 56 56 56 55 56 56 57 58 58 58 57 56 55 54 55 55 55 54 55 55 55 56 56 57 57 57 57 57 57
50 52 54 58 61 63 63 63 63 63 62 60 59 58 56 57 58 57 54 51 49 48 45 43 44 45 45 46 46 46 46 46 46 47 48 50 52 54 55 54 54 55 55 56 56 57 57 58 59 61 63 64 63 60 60 63 64 63 62 59 58 58 59 59 60 60 61 62 62 61 59 58 57 57 57 57 58 58 58 58 58 59 59 60 60 60 60 60
44 46 48 53 58 60 61 62 63 64 63 62 61 59 58 58 58 57 56 54 52 50 48 47 46 46 46 47 48 48 48 48 48 47 47 47 49 50 51 51 51 52 54 54 55 56 57 59 60 61 64 65 66 64 64 65 66 67 67 65 63 62 62 62 62 63 64 65 65 64 62 62 61 60 60 61 61 61 61 61 61 61 61 62 62 62 62 62
38 41 43 47 53 56 58 59 61 62 63 63 62 60 59 60 59 58 57 56 55 53 51 50 48 47 47 48 50 51 50 50 50 49 48 48 48 49 48 48 48 49 51 52 52 52 53 54 55 58 61 63 64 65 65 65 66 67 68 69 67 65 64 64 64 65 65 67 68 67 65 65 64 63 62 62 62 62 62 62 62 62 62 62 62 62 62 62
34 37 39 43 47 50 53 56 58 59 61 61 61 60 60 61 60 59 59 58 57 55 53 52 51 50 50 50 52 52 52 52 52 50 49 49 50 49 49 48 48 48 49 50 50 50 51 52 52 54 56 58 60 61 61 61 63 65 66 68 67 66 65 65 66 66 67 68 68 67 66 66 65 64 64 63 62 62 62 62 63 63 62 62 62 62 62 62
30 32 35 38 41 44 48 53 56 57 57 57 57 57 58 60 60 60 59 59 59 57 55 54 53 53 53 52 53 53 53 53 53 52 52 52 52 52 51 50 49 50 50 51 52 51 52 52 52 52 53 54 55 56 56 57 60 62 63 64 64 64 63 63 64 66 67 68 68 67 67 66 65 64 64 63 63 63 63 63 62 62 62 62 62 63 63 63
25 27 30 33 35 39 43 47 52 54 54 53 53 53 54 56 58 59 60 60 60 59 57 56 55 55 55 54 54 54 54 54 54 54 54 54 54 54 53 52 52 52 52 53 54 53 53 53 53 53 53 53 54 55 56 56 58 59 59 59 59 58 58 58 59 60 62 64 65 65 65 65 64 63 62 62 63 63 63 63 62 62 62 62 62 63 63 64
21 23 25 27 30 33 37 42 47 50 52 51 50 49 51 53 56 58 59 59 60 60 59 58 58 57 57 57 56 55 54 55 56 56 55 56 56 56 55 54 54 55 54 54 54 54 54 54 54 54 54 54 54 55 56 57 57 57 56 56 55 54 53 53 53 54 56 57 59 60 61 61 61 61 61 61 61 61 61 62 61 62 62 62 63 63 64 64
Wind_Direction
256 255 254 253 252 251 250 250 249 249 249 249 248 248 248 249 249 249 249 250 251 251 251 252 252 253 253 254 254 255 255 256 256 256 255 254 253 253 253 253 253 253 253 254 254 255 255 256 256 256 256 256 256 257 257 258 258 258 259 260 260 261 261 262 263 264 265 265 266 266 267 268 268 268 269 269 269 269 269 270 271 272 273 274 275 275 275 276
256 255 254 253 252 251 250 249 249 249 249 248 248 248 248 248 249 249 249 249 250 251 251 251 252 252 253 253 254 254 255 255 256 256 257 256 255 254 254 254 254 254 254 254 254 254 255 256 256 256 256 256 256 257 257 258 258 258 259 259 260 261 261 262 263 264 265 265 266 267 267 268 268 268 268 268 269 269 270 271 272 273 274 274 274 274 275 275
255 254 253 253 252 251 250 250 249 248 248 248 248 248 248 248 248 249 249 249 249 250 250 251 252 252 252 253 253 254 254 255 255 256 256 257 257 257 256 255 255 255 255 255 254 255 255 255 256 256 256 257 257 258 258 259 259 259 259 260 260 262 262 262 263 264 265 266 267 267 268 268 268 268 268 269 270 271 272 272 273 273 274 274 274 275 275 276
254 253 253 252 252 251 251 250 249 249 248 248 247 247 247 248 248 248 249 249 249 249 250 250 251 252 252 252 253 253 254 254 255 255 256 256 257 257 258 257 257 256 256 256 255 256 256 256 256 256 256 257 257 258 258 259 259 260 260 260 262 263 263 263 264 265 266 267 267 267 268 268 268 268 269 270 271 272 273 273 274 274 274 275 275 275 275 275
253 252 252 251 251 250 250 250 249 249 248 248 247 247 247 247 247 248 248 249 249 249 250 250 251 251 252 252 252 253 253 254 254 255 255 256 256 257 257 258 258 258 258 257 257 257 257 257 257 257 257 257 258 258 258 259 260 260 261 261 263 263 264 264 265 266 266 267 267 267 267 267 268 269 270 271 272 273 273 274 274 274 274 275 275 275 275 275
253 252 251 250 250 249 249 249 249 249 248 248 247 247 247 247 247 247 247 248 249 249 250 250 250 251 251 252 252 252 253 253 253 254 255 255 255 256 256 257 258 258 259 258 258 258 258 258 258 257 257 258 258 258 259 260 261 261 262 262 263 264 264 265 265 266 266 267 267 267 267 267 268 269 270 272 273 273 273 273 274 274 275 274 275 275 276 277
253 251 250 249 249 248 248 248 248 248 248 248 247 247 247 246 246 247 247 247 248 248 249 250 250 251 251 251 252 252 252 253 253 253 253 254 254 254 255 256 256 257 258 258 259 259 259 259 258 258 258 259 259 260 261 262 262 262 262 262 263 264 264 264 264 265 265 265 266 266 266 267 268 270 272 273 273 273 273 274 274 274 274 275 276 277 277 278
254 252 250 249 248 248 247 247 247 247 247 247 247 247 246 246 246 246 246 247 247 248 248 249 250 250 251 251 251 252 252 252 252 252 253 253 253 253 254 254 255 256 257 258 258 259 258 258 258 259 260 262 262 263 263 263 262 261 261 262 263 263 263 264 264 264 265 265 265 266 267 268 269 272 273 274 274 274 274 274 274 274 275 276 277 278 278 278
255 253 251 250 248 247 247 246 246 246 246 246 246 246 246 246 246 246 246 246 247 247 248 248 249 250 250 250 251 251 251 251 252 252 252 252 252 253 253 253 254 255 256 257 257 257 257 258 260 261 262 263 263 263 263 262 261 261 261 262 263 263 264 265 265 265 265 266 266 267 268 269 271 273 274 274 275 275 275 275 275 275 275 276 277 278 278 279
256 254 252 250 249 248 247 246 245 245 245 245 244 245 245 245 245 245 246 246 246 246 247 247 248 249 249 250 250 250 250 251 251 251 252 252 252 253 253 253 253 254 255 255 256 257 258 259 261 262 262 262 262 262 262 262 261 261 262 263 263 264 265 266 266 265 266 267 268 268 270 271 273 274 274 275 275 275 275 275 274 275 276 278 279 279 279 279
257 256 253 251 249 248 247 246 245 244 244 244 244 243 244 244 244 244 245 245 245 245 246 246 247 247 248 249 249 250 250 250 250 251 251 252 252 253 253 253 253 253 254 254 255 256 258 259 259 260 260 261 261 262 262 261 261 262 263 263 264 265 266 266 265 266 267 269 269 270 272 273 273 273 273 273 274 275 275 274 274 276 278 279 279 279 279 279
258 257 255 252 250 248 247 246 245 244 244 243 243 243 243 243 243 243 244 244 244 245 245 245 246 246 247 248 249 249 250 250 250 250 251 251 252 252 252 252 253 253 253 254 255 256 257 258 259 259 260 260 261 262 262 261 262 262 263 264 265 265 265 265 266 268 269 270 270 271 272 272 271 271 272 273 273 274 273 274 275 277 277 277 277 278 278 279
259 257 256 254 251 249 247 246 245 244 243 243 242 242 242 242 242 242 242 243 243 244 244 245 245 246 247 248 248 249 249 249 250 250 250 251 251 252 252 252 253 253 254 254 255 256 257 258 259 259 260 260 261 261 261 262 262 263 263 264 264 264 265 266 268 270 269 268 268 269 270 270 271 271 272 272 273 272 272 274 275 276 275 276 276 277 277 278
260 259 257 255 252 250 248 246 245 244 243 242 242 242 241 241 241 241 241 242 243 243 244 244 245 246 247 247 248 248 248 249 250 250 250 251 251 252 252 253 253 254 254 255 256 256 257 258 258 258 259 259 260 261 262 262 263 263 263 263 263 264 265 267 268 268 266 265 267 269 269 269 271 272 271 271 271 271 271 273 273 273 274 275 276 276 276 277
261 260 258 256 254 251 249 247 245 244 243 242 241 241 241 240 240 240 241 241 242 242 243 244 245 245 246 247 248 248 248 248 249 250 250 251 251 252 252 253 253 254 255 255 256 256 256 257 257 258 258 259 260 260 261 261 261 261 261 261 262 263 265 266 266 266 265 266 267 268 267 268 270 271 270 270 269 269 270 270 271 272 274 275 275 275 276 277
262 261 259 257 255 252 249 248 246 244 243 242 241 241 240 240 239 240 240 240 241 242 242 243 244 245 246 247 248 248 248 248 249 250 250 250 251 252 253 253 254 254 255 255 255 256 256 256 257 257 258 259 259 260 260 260 260 260 260 261 262 263 264 264 265 265 265 266 266 266 266 268 269 270 270 269 268 268 269 270 270 272 273 274 274 275 275 276
263 262 261 259 256 253 250 248 246 245 243 242 241 240 240 239 239 239 239 240 241 241 242 243 244 245 245 246 247 248 248 248 248 249 250 251 251 252 253 253 254 254 255 255 255 256 256 256 257 257 258 258 258 258 258 258 258 259 261 261 262 262 261 262 262 263 264 264 264 265 266 267 268 268 268 267 266 267 268 268 269 271 273 274 274 275 274 274
264 262 261 260 257 254 251 249 247 245 243 242 241 240 240 239 239 239 239 239 240 241 242 243 244 244 245 246 246 247 247 247 248 248 249 250 251 251 252 253 253 254 254 255 255 255 255 256 256 256 256 256 257 257 257 258 259 260 260 260 259 259 259 260 260 261 262 262 262 263 264 265 265 265 264 264 264 264 265 266 268 270 271 272 273 275 274 274
265 263 261 260 258 256 252 250 247 246 244 242 241 240 240 239 239 238 238 239 240 241 241 242 242 243 244 245 245 246 247 247 247 247 248 249 249 250 251 252 253 253 254 254 255 255 254 255 255 255 255 255 256 257 258 259 259 258 257 257 257 257 258 259 259 260 261 261 261 261 261 262 263 262 261 260 260 261 263 266 268 270 271 272 274 274 274 274
266 264 262 260 258 256 254 251 248 246 244 243 241 240 239 239 238 237 237 238 238 239 239 240 241 241 242 243 244 245 246 247 246 246 247 247 248 250 251 251 252 253 254 254 254 253 253 253 253 254 255 255 256 256 257 257 256 255 255 255 255 256 257 258 258 259 259 259 259 260 260 260 260 260 259 258 259 261 263 265 267 269 271 272 272 271 272 274
268 265 262 260 259 257 254 252 250 247 244 243 241 240 239 238 237 237 237 237 238 238 239 239 239 239 240 242 243 243 244 245 245 245 246 246 248 249 250 251 252 253 253 253 253 252 252 253 253 254 254 254 255 255 255 254 254 253 254 254 255 255 255 255 256 256 256 256 257 258 259 258 258 259 260 259 260 261 263 264 265 267 268 267 266 267 270 270
271 267 263 261 259 257 255 253 250 248 245 243 241 240 239 238 237 237 237 237 237 238 239 238 238 239 241 242 242 242 242 243 244 245 245 246 247 248 250 251 252 252 252 252 252 252 252 252 253 253 253 253 254 253 253 252 252 252 253 253 253 253 252 252 253 254 254 256 257 257 257 257 257 258 259 260 260 260 261 263 264 265 264 264 265 267 268 267
273 268 265 262 259 257 256 254 251 248 246 243 242 240 239 239 238 238 237 237 238 238 239 238 238 239 240 241 241 241 241 242 243 244 245 246 247 248 249 250 251 251 251 251 251 251 252 252 252 252 252 252 251 251 250 251 251 252 252 251 251 251 250 250 251 253 254 255 256 256 257 256 255 255 257 258 259 260 261 263 264 264 262 263 266 266 266 266
276 271 267 263 259 256 255 254 252 249 246 244 242 241 240 239 239 238 238 238 238 239 239 239 238 239 239 241 242 241 241 242 242 243 244 245 245 247 249 250 250 250 249 249 250 251 251 251 250 250 249 249 249 249 248 249 250 250 250 249 249 249 249 250 251 253 254 255 256 257 257 256 255 254 255 257 259 261 262 263 263 262 262 263 263 263 263 264
278 273 268 265 261 257 254 253 252 250 247 244 242 240 240 239 239 238 238 238 238 239 239 239 239 239 240 241 242 241 241 241 242 243 244 245 245 246 248 248 248 248 248 249 250 250 250 249 249 248 248 248 248 247 247 248 248 249 249 249 249 249 250 251 251 252 253 255 256 257 258 258 257 257 257 258 260 262 263 263 262 262 262 261 260 260 262 263
279 275 271 266 263 259 255 253 252 250 247 244 242 240 239 239 238 238 238 238 238 238 239 239 239 239 239 241 242 242 241 241 242 243 244 244 245 245 246 246 247 248 249 250 250 250 249 248 248 247 247 247 247 247 247 247 248 250 251 250 250 250 251 252 253 253 253 255 256 257 257 258 258 258 259 260 262 262 262 262 261 261 261 261 260 260 260 262
279 276 273 268 264 261 257 252 251 250 248 246 243 240 238 238 238 238 238 239 239 238 239 239 239 239 239 240 242 243 242 241 241 242 242 244 245 246 246 247 247 248 249 250 250 249 248 248 247 247 247 247 247 247 247 248 249 251 252 251 250 251 252 254 254 254 254 254 255 256 256 258 259 259 260 261 261 260 260 259 259 259 260 261 262 261 260 261
279 277 274 270 266 262 259 254 251 249 249 248 246 241 239 237 237 238 238 239 239 239 240 240 239 239 238 239 241 242 242 241 240 241 242 244 245 246 246 246 247 248 249 249 249 248 248 247 248 248 248 249 249 249 249 250 250 251 252 254 254 254 254 254 254 253 253 254 254 255 257 258 259 260 260 259 257 257 257 258 258 258 259 260 260 259 258 259
277 276 274 272 268 263 260 257 253 250 249 249 247 243 240 238 236 236 237 238 239 238 239 240 239 238 238 238 240 241 242 242 241 241 241 242 244 244 245 246 248 248 248 248 248 247 246 246 247 249 249 250 250 250 250 251 252 253 254 255 254 253 253 252 252 252 253 253 254 255 256 257 259 260 260 258 256 256 256 257 257 257 257 256 255 256 256 256
275 273 272 271 269 265 261 258 256 253 250 249 248 244 242 240 237 235 236 237 238 237 237 237 238 238 237 237 238 240 241 242 243 242 241 241 243 244 245 246 247 246 246 246 247 247 246 246 247 248 249 250 251 251 251 251 253 253 254 254 253 251 251 252 252 253 253 253 254 254 254 256 258 259 260 259 256 255 255 255 256 255 255 254 253 253 254 254
272 271 270 269 268 266 263 260 257 254 252 250 248 246 244 241 239 236 236 236 236 236 236 236 237 238 237 236 238 240 240 241 243 243 243 242 242 244 245 245 245 245 244 245 246 247 248 248 247 247 249 250 252 253 252 251 251 252 252 252 253 252 251 252 253 253 253 253 254 254 254 254 256 258 261 260 257 255 253 253 254 254 255 255 254 253 254 253
270 268 267 267 266 266 265 262 258 255 253 251 248 247 246 243 240 238 237 236 235 236 237 236 236 237 237 237 238 239 239 240 241 242 242 242 242 243 244 245 245 245 244 245 247 248 248 248 248 248 249 251 252 251 250 250 251 252 252 252 253 253 252 252 252 252 252 252 252 253 253 253 254 256 260 262 259 256 255 254 254 255 255 255 254 253 253 252
268 267 266 264 264 264 264 262 260 257 254 252 250 248 247 244 241 239 238 238 236 236 237 237 236 237 239 238 238 238 238 238 239 240 241 242 242 242 244 244 244 245 244 244 246 247 248 248 248 248 249 250 251 251 251 251 252 253 252 252 253 254 253 253 252 251 251 251 251 252 254 254 254 255 259 263 262 258 256 256 256 256 255 254 253 252 252 252
266 265 265 263 262 263 262 261 261 259 256 254 252 250 249 246 242 241 239 239 238 238 238 238 237 238 239 239 238 238 239 239 239 240 241 241 241 242 243 244 243 244 244 244 245 247 247 247 246 247 248 248 250 251 252 253 253 252 252 252 253 254 254 254 253 252 252 252 252 253 254 254 255 255 257 262 263 260 256 256 255 255 254 254 252 251 251 251
265 263 263 263 263 263 261 259 260 260 257 256 254 251 249 245 243 243 242 241 241 240 239 238 237 235 236 238 238 238 238 239 240 241 241 241 241 241 242 243 243 244 244 244 245 246 247 247 246 246 247 247 249 251 252 251 251 251 252 252 253 253 254 255 255 256 256 255 253 253 253 253 253 254 254 259 264 264 260 257 254 253 252 252 252 251 251 253
264 262 262 264 265 265 262 257 257 258 256 255 255 253 249 247 246 246 245 243 241 240 239 238 237 236 235 237 238 237 238 239 239 239 241 242 242 242 242 244 244 244 245 245 245 246 247 249 248 247 247 248 249 250 250 249 249 251 252 252 252 253 254 255 257 258 259 259 257 255 255 254 254 255 256 258 262 263 260 257 254 253 251 251 251 251 251 253
264 263 263 265 266 264 259 255 254 255 256 255 254 253 251 250 249 249 247 245 242 240 239 239 239 239 237 238 239 239 240 241 239 238 238 239 243 244 243 243 242 242 243 243 244 245 247 249 249 248 248 247 248 249 248 248 249 250 250 251 252 253 255 256 258 260 261 261 260 258 257 257 257 257 256 255 258 260 259 257 255 254 253 252 252 253 253 254
265 264 265 265 264 261 258 257 255 255 256 255 252 252 252 252 250 249 248 247 245 243 242 240 240 241 240 240 240 240 241 244 244 243 241 240 241 243 242 242 241 241 242 244 245 246 247 249 251 251 250 248 249 251 251 249 250 251 251 251 253 254 255 257 258 259 259 260 260 259 259 259 259 259 257 255 255 257 259 259 258 256 255 254 255 256 256 256
266 266 265 264 262 260 258 258 257 256 255 254 251 250 251 252 252 251 250 250 249 247 246 244 242 242 242 242 242 241 241 244 246 247 246 243 242 243 244 244 244 243 244 245 246 246 248 250 251 252 253 251 250 252 253 251 250 252 252 252 253 255 255 255 256 256 257 258 259 260 261 261 260 260 259 256 255 256 258 259 259 258 258 257 256 257 258 259
267 266 265 263 262 260 258 257 257 256 254 252 250 250 251 253 255 255 253 252 252 250 249 248 246 245 245 244 244 243 241 241 243 245 246 245 244 244 245 245 245 244 244 244 245 246 247 250 251 252 252 253 252 253 254 253 251 252 254 253 253 255 255 255 256 257 258 259 260 261 261 261 260 260 260 259 258 258 259 260 260 261 260 259 259 258 259 260
267 266 264 263 262 260 258 257 257 255 254 252 251 251 251 254 257 257 255 253 252 251 250 249 248 248 248 247 246 246 244 243 242 243 245 245 243 243 244 243 243 244 243 242 243 245 246 248 250 251 251 252 252 252 254 254 253 252 254 254 253 255 256 257 257 257 258 259 260 260 261 261 262 262 262 263 262 261 261 261 261 261 261 261 260 260 260 261
267 266 264 262 261 260 259 258 256 255 254 252 251 250 251 253 256 257 256 254 253 252 251 250 249 249 249 248 248 247 246 245 245 245 245 245 244 243 243 243 243 243 243 243 243 244 246 248 250 251 251 251 252 252 254 255 255 254 254 255 255 255 257 258 258 257 257 259 260 259 259 260 262 263 263 263 263 262 262 262 261 261 262 262 262 262 262 263
266 264 262 262 261 260 259 258 256 255 253 251 251 251 251 252 254 256 257 256 255 253 252 252 250 249 249 249 248 248 247 246 247 247 248 249 248 245 244 244 244 243 244 244 244 245 246 249 251 253 253 252 252 253 254 256 258 258 257 257 257 257 256 257 257 257 257 257 259 259 259 260 261 263 263 263 264 263 263 263 263 262 262 262 263 263 263 264
264 262 260 260 259 258 257 257 255 253 252 252 252 252 252 252 253 255 256 256 255 254 252 251 250 248 247 246 246 246 246 247 247 248 249 250 251 250 247 245 245 245 244 245 245 246 248 250 252 255 256 255 255 256 256 257 258 258 258 258 258 258 257 256 257 257 256 256 258 259 260 261 262 263 264 264 264 264 264 263 263 263 263 263 262 262 263 263
262 259 257 257 257 256 255 254 253 252 252 252 252 252 252 252 252 254 256 255 255 254 251 248 247 246 245 245 244 244 245 245 246 247 248 250 251 252 251 249 248 247 246 246 246 246 247 249 251 254 257 258 257 258 258 258 257 257 256 257 258 258 257 257 256 256 256 256 256 258 259 260 261 262 263 263 263 263 263 263 263 263 263 263 263 262 262 262
261 258 255 254 253 253 252 252 251 251 251 251 251 251 251 251 252 254 255 255 254 253 251 247 245 244 244 244 244 243 244 244 244 245 247 248 249 250 251 251 250 250 249 247 246 246 246 247 248 251 255 257 257 256 257 259 259 257 256 255 255 257 257 257 257 257 257 257 257 257 258 259 260 260 261 262 262 262 262 262 263 263 263 263 263 263 263 262
262 258 253 251 250 251 251 250 250 251 251 250 250 250 250 250 251 252 253 253 252 251 250 247 245 244 243 243 243 243 243 244 244 244 245 247 248 248 249 250 251 252 252 251 249 248 247 247 248 250 253 256 257 255 254 256 258 259 257 255 253 253 255 257 258 258 259 259 259 259 258 259 259 260 260 261 262 262 262 262 262 262 263 263 263 263 263 263
262 258 253 249 248 248 249 249 248 248 249 249 249 249 249 249 250 250 251 251 251 250 249 248 246 244 242 242 242 242 242 242 244 244 244 245 247 247 248 248 249 249 251 251 251 250 249 249 249 251 252 254 256 256 254 255 256 258 258 257 254 252 253 255 257 258 259 260 261 261 260 260 260 260 260 260 261 262 262 262 262 261 261 262 262 263 263 263
263 258 254 249 247 247 247 247 248 247 247 247 247 246 246 247 247 248 248 249 249 248 248 247 246 244 242 241 241 242 242 242 242 243 243 243 244 245 246 246 247 247 248 250 250 250 250 249 248 249 251 253 255 256 256 255 255 256 257 258 257 255 254 254 255 257 258 259 260 260 261 260 260 260 259 259 260 260 261 261 262 262 262 262 262 262 263 263
264 259 255 251 248 246 245 245 246 247 247 246 246 245 244 244 246 246 246 247 247 247 246 246 245 245 244 242 242 242 243 243 242 242 242 242 243 243 244 245 246 246 246 247 248 249 250 250 249 249 249 251 252 254 255 255 256 256 255 256 257 257 256 255 255 256 257 258 258 259 259 259 259 259 259 259 259 259 259 260 261 262 262 262 263 263 263 263
266 260 256 252 249 246 245 245 246 248 248 247 246 245 244 243 244 244 244 244 245 245 245 244 244 244 244 243 242 242 243 244 244 243 243 243 244 244 244 244 245 245 245 247 248 249 250 252 253 252 251 252 253 254 255 256 257 258 258 259 259 259 259 257 256 255 256 256 257 257 257 257 257 257 257 258 258 258 258 259 259 260 260 261 262 262 263 263
271 263 258 253 249 245 244 244 245 247 248 247 245 244 243 242 242 242 242 242 243 244 244 244 243 242 243 243 242 242 242 243 244 244 243 243 244 245 244 244 244 245 245 247 249 250 251 252 253 254 254 255 256 257 258 259 261 262 264 265 265 264 264 262 260 258 257 256 257 257 257 256 256 256 256 256 257 257 258 259 259 260 260 261 261 262 262 263